Location: Clanezzo
(45.7500°N, 9.6000°E)
Time: 17:21:03
(UTC+00:00)

STARS - Pass Details

Date: 11 July 2022
Orbit: 620 x 637 km, 98.2° (Epoch: 18 August)

Event Time Altitude Azimuth Distance (km) Brightness Sun altitude
Rises 22:43:47 0° 7° (N) 2,924 ? -21.5°
Reaches altitude 10° 22:46:05 10° 0° (N) 2,009 ? -21.6°
Maximum altitude 22:50:11 42° 290° (WNW) 902 ? -21.7°
Enters shadow 22:51:47 29° 243° (WSW) 1,141 ? -21.8°
